FENGYUN 1C DEB

Satellite information

Favourite Embed

Satellite Type and Status

DEBRISIN ORBIT

Key statistics

Satellite FENGYUN 1C DEB at a glance.

Uptime

9715

Days in orbit

Revolutions

≈ 14.1

Per day

Orbit

SSO

Sun Synchronous Orbit

Inclination

100.9

Latest

Satellite identification and parameters

Extended collection of information and parameters for FENGYUN 1C DEB.

Object identification

Identified? True

Debris? True

Object name: FENGYUN 1C DEB

International designator: 1999-025DVE

Object number (NORAD): 36229

Object ID (CCSDS): 36229

Country: PEOPLES REPUBLIC OF CHINA (PRC)

Current information (Y/N): Y

RCS size: SMALL

Orbital parameters

Period: 102.333 minutes

Inclination: 100.925 deg

SMA: 7247.194 km

Apoapsis: 943.376 km

Periapsis: 794.742 km

RAAN: 204.236 deg

Eccentricy: 0.01025458

Argument of periapsis: 127.5595 deg

Mean anomaly: 233.4936 deg

Mean motion: 14.07174433 rev/day

Mean motion (dot): 0.00003782 rev/day2

B* drag term: 0.0021853146 1/REarth

Two-line elements (TLE)

Creation date: Dec. 11, 2025, 3:54 a.m.

Reference frame: TEME

Reference center: EARTH

Epoch: Dec. 10, 2025, 8:31 p.m. UTC

TLE line 0: 0 FENGYUN 1C DEB

TLE line 1: 1 36229U 99025DVE 25344.85504320 .00003782 00000-0 21853-2 0 9993

TLE line 2: 2 36229 100.9250 204.2360 0102546 127.5595 233.4936 14.07174433632296

Live tracking on map

Real-time ground track for satellite FENGYUN 1C DEB.

In-orbit conjunctions

A list of the most updated potential collisions computed for object FENGYUN 1C DEB.

Target Orbit TCA Probability of collision Miss distance Type
CZ-6A DEB LEO 2025-09-27 04:11:36 0.0001392071 375.0 (m) DEBRIS
CZ-6A DEB LEO 2025-09-10 10:50:26 0.0003026304 164.0 (m) DEBRIS
COSMOS 1275 DEB LEO 2024-11-11 21:46:49 0.0002420788 548.0 (m) DEBRIS

Associated space launch

Chinese polar orbiting meteorological satellite

FENGYUN 1C DEB was lifted into orbit during the mission ‘Long March 4B | Feng Yun 1C’, on board a Long March 4B space rocket.

The launch took place on May 10, 1999, 1:33 a.m. from Launch Complex 7.

For more information about the launch, click the button.

Launch to space Long March 4B | Feng Yun 1C
Long March 4B | Feng Yun 1C

Agency: N/A

Status: Launch Successful

Launch date: May 10, 1999, 1:33 a.m. UTC

Rocket: Long March 4B

Launch pad: Launch Complex 7

Location: Taiyuan Satellite Launch Center, People's Republic of China

...

Latest news about this satellite

There are no fresh news available about this satellite. Check back as we update our databases every day.


Newsletter sign-up

Weekly statistics, charts and insights to help you stay on top of the space industry.